Wind_Speed
12 14 16 16 18 18 17 17 18 19 21 22 25 28 28 24 16 23 15 20 17 20 19 20 21 21 19 18 16 9 2 16
15 14 16 16 18 20 19 18 19 21 21 23 25 26 27 24 22 22 20 19 19 22 22 19 21 21 20 20 15 9 5 10
16 15 16 17 17 18 21 19 18 20 21 23 24 21 23 20 22 20 22 22 20 22 23 22 23 20 19 18 15 10 6 9
17 17 17 18 17 18 19 18 18 18 19 20 22 22 20 20 23 21 25 22 22 21 19 17 19 21 19 16 12 11 10 9
20 19 18 19 18 21 19 20 20 22 23 23 23 23 23 23 23 21 21 22 19 19 16 15 17 18 17 15 13 12 11 13
20 21 20 20 19 21 24 22 22 23 24 26 24 24 21 21 22 21 23 23 19 21 21 18 20 20 18 17 12 15 13 13
18 20 21 22 24 22 25 25 24 24 23 27 26 25 23 22 24 25 25 23 23 23 22 23 25 20 19 21 16 12 13 13
17 20 22 22 25 25 26 27 25 26 25 26 29 26 25 25 24 23 24 23 27 26 24 26 20 21 18 21 17 14 15 14
15 18 20 23 23 26 28 28 29 27 27 27 27 29 26 25 24 24 29 30 30 25 28 27 24 23 22 21 18 15 16 15
17 16 19 23 25 23 27 28 30 29 27 27 29 29 27 26 24 25 28 30 29 31 27 29 25 26 24 22 19 18 17 15
17 19 19 22 24 26 25 31 30 30 28 24 32 31 31 27 29 29 26 28 31 25 29 23 21 23 24 21 21 20 20 19
17 20 20 20 22 24 26 26 30 33 30 27 23 29 27 28 28 31 30 30 32 32 32 26 24 25 25 22 21 21 20 20
18 18 20 22 24 26 27 28 24 26 29 30 24 27 27 29 29 32 33 33 36 40 38 32 26 28 27 22 19 20 18 18
13 17 17 21 24 25 25 26 19 25 22 25 26 24 25 31 28 30 35 32 37 39 38 30 27 28 26 24 7 15 20 20
12 13 14 17 21 18 14 18 15 23 26 24 25 23 25 25 32 34 34 35 34 40 42 39 30 31 33 26 10 8 15 18
11 9 10 13 18 20 24 21 17 18 19 23 22 22 24 25 26 30 32 37 36 41 45 46 32 29 32 31 24 24 13 9
10 9 7 8 16 14 22 19 23 22 23 23 23 23 25 24 26 26 33 37 38 45 42 45 40 33 34 32 28 21 30 16
10 8 6 9 14 18 22 24 23 20 17 18 21 21 22 21 22 28 32 36 37 43 46 45 41 36 35 32 29 18 24 18
13 8 6 9 12 16 20 24 22 16 17 20 20 19 19 19 20 25 28 34 31 39 40 43 43 36 35 33 25 25 24 20
16 14 5 7 12 14 20 18 18 18 19 18 18 19 20 19 22 24 25 32 33 40 43 41 43 34 33 33 24 24 20 21
Wind_Direction
181 183 189 191 191 194 198 201 193 196 204 202 194 192 194 196 201 181 189 178 169 181 190 177 175 169 168 167 163 178 286 125
186 184 187 189 195 198 200 206 206 201 203 204 204 199 198 203 187 186 184 182 175 185 191 177 179 171 169 167 170 172 234 153
193 188 191 190 192 201 202 205 209 210 204 207 209 201 201 201 194 201 195 186 190 192 189 178 174 168 171 171 166 180 193 170
202 196 195 192 194 197 198 203 205 207 206 209 202 206 204 203 198 202 195 196 198 198 197 189 167 162 175 175 180 190 177 153
210 205 200 196 198 193 194 200 205 208 207 208 209 209 208 207 202 197 201 199 188 194 186 188 173 168 175 186 188 162 172 132
211 209 206 204 202 197 198 200 202 206 209 210 208 212 214 210 206 202 199 197 190 184 185 189 191 186 172 186 182 179 163 131
214 210 209 209 207 202 201 202 205 210 209 211 208 210 207 207 210 198 199 198 190 185 193 188 202 179 175 172 183 181 159 154
214 217 214 210 211 206 203 206 207 208 212 210 208 211 207 207 210 210 203 198 194 191 192 192 199 171 169 177 179 170 168 157
215 216 220 215 212 211 211 212 212 208 211 212 210 207 209 208 208 208 202 203 196 199 198 192 190 171 178 185 176 170 171 167
251 239 218 219 218 214 215 217 213 212 211 210 210 207 208 209 208 209 207 205 200 198 193 195 187 172 177 183 173 173 170 169
257 251 240 221 222 220 212 217 215 214 212 211 215 212 211 209 206 204 205 200 199 193 186 191 184 178 179 187 170 172 171 175
265 258 250 234 224 220 220 212 214 213 211 214 210 211 211 212 208 205 207 197 191 193 187 194 196 181 186 180 172 163 175 177
259 255 247 236 224 217 215 209 197 198 212 215 203 212 210 213 206 199 201 196 188 194 188 193 206 183 174 171 155 169 176 176
270 253 248 235 224 219 216 209 199 194 204 211 212 211 211 215 210 204 196 189 183 187 187 194 206 193 165 161 153 174 182 174
295 259 242 229 223 207 189 181 190 200 209 211 213 211 210 205 209 210 211 199 188 190 188 188 201 194 176 171 155 180 171 180
326 285 254 225 223 198 191 189 195 198 202 208 210 210 211 210 206 207 206 203 195 191 188 192 203 189 186 186 185 181 171 173
334 313 266 236 226 220 191 198 205 202 206 201 209 212 212 210 206 203 209 210 207 197 190 190 199 192 188 194 197 187 178 173
332 322 291 246 227 218 201 210 219 198 194 193 199 206 207 209 213 219 223 225 207 194 188 186 190 200 190 194 190 194 175 179
334 313 277 244 227 223 224 217 227 201 195 200 193 191 203 205 209 217 220 211 195 189 186 185 191 193 191 194 190 196 181 204
339 328 282 255 238 233 224 229 219 212 205 206 200 199 198 202 211 214 206 199 193 195 189 187 191 191 195 196 197 186 192 196
Height
749 750 752 755 758 762 764 767 771 773 777 779 780 781 785 788 791 793 796 801 800 803 809 809 812 815 819 822 823 824 822 823
747 751 753 755 758 760 763 767 770 773 776 780 782 784 786 789 791 795 797 799 801 804 806 807 813 816 818 821 825 825 824 825
745 748 751 754 757 759 762 766 769 772 775 778 782 787 788 789 791 795 797 798 800 803 805 808 811 816 819 822 825 826 826 827
742 745 748 752 755 758 761 765 767 770 773 777 781 784 786 788 792 794 797 797 799 804 807 810 812 814 821 823 824 824 826 828
738 741 745 748 752 754 759 762 765 767 770 774 777 780 783 785 789 792 795 797 801 805 807 812 814 816 821 823 824 825 826 828
732 737 740 744 749 751 753 757 760 763 766 769 772 776 778 782 785 788 792 795 798 800 804 808 813 814 818 821 822 824 826 829
727 732 736 740 744 746 749 752 755 758 761 764 767 771 774 778 782 784 787 791 794 797 802 807 809 811 816 819 822 824 826 830
723 728 731 735 738 741 743 746 749 752 755 758 762 766 769 772 777 779 783 788 792 794 798 805 806 808 814 819 821 824 828 830
718 723 726 729 732 736 739 741 744 745 749 753 757 760 764 769 772 775 779 782 786 790 798 802 805 807 813 817 819 824 828 831
713 716 720 723 726 729 733 736 739 740 744 748 752 754 760 764 767 771 775 780 785 788 793 798 799 803 811 815 818 823 826 830
710 711 713 716 720 723 725 730 732 735 739 742 745 749 754 758 761 765 771 776 781 787 788 795 797 802 809 812 815 820 824 828
707 708 708 711 714 717 720 723 725 729 732 736 740 744 748 753 755 760 766 770 775 783 789 793 795 800 807 810 813 817 822 826
703 702 703 705 707 710 713 714 718 722 727 733 734 738 743 747 751 753 759 764 767 776 784 788 792 796 803 808 812 818 821 824
698 697 697 698 700 703 706 711 714 718 724 729 731 734 736 741 745 748 754 758 765 771 778 785 789 791 795 803 811 820 820 822
694 691 691 693 696 699 704 710 713 717 720 724 726 730 733 737 740 744 748 755 757 765 770 777 784 786 790 793 803 806 816 820
692 689 688 690 693 695 700 704 707 711 715 719 722 726 729 733 736 739 743 747 752 757 761 770 778 780 788 790 793 795 804 815
693 689 687 689 693 692 696 701 704 707 710 713 717 720 724 727 730 734 738 741 743 748 753 760 770 775 779 784 787 789 797 803
688 688 687 690 691 691 693 698 697 699 704 708 711 715 718 721 725 728 732 735 737 741 744 753 761 768 773 778 780 782 789 793
686 682 686 688 689 689 691 694 695 696 701 705 707 709 712 714 718 722 725 728 731 736 740 747 757 762 767 773 775 780 784 788
687 681 679 684 686 686 687 690 692 694 698 700 702 705 708 710 713 718 720 724 727 732 736 742 750 756 764 769 773 776 780 785